timestamp, 		tick, 	maxbdip, 	maxindex, 	minbdip, 	minindex, 	change,	steepness, 	maxaftdip, 	maxaftidx, 	minaftdip, 	minaftindex, 	rise, 	alert
13042021_19:42:46,	2.091,	2.167,		44,		1.925,		-19599,		-3.52,	0.00,		1000000.00,	-1,		1000000.00,		-1,		0.00,
13042021_19:42:57,	2.091,	2.167,		43,		1.925,		-19600,		-3.52,	0.00,		1000000.00,	-1,		1000000.00,		-1,		0.00,
13042021_19:43:07,	2.091,	2.167,		42,		1.925,		-19601,		-3.52,	0.00,		1000000.00,	-1,		1000000.00,		-1,		0.00,
13042021_19:43:17,	2.091,	2.167,		41,		1.925,		-19602,		-3.52,	0.00,		1000000.00,	-1,		1000000.00,		-1,		0.00,
13042021_19:43:28,	2.091,	2.167,		40,		1.925,		-19603,		-3.52,	0.00,		1000000.00,	-1,		1000000.00,		-1,		0.00,
13042021_19:43:38,	2.091,	2.167,		39,		1.925,		-19604,		-3.52,	0.00,		1000000.00,	-1,		1000000.00,		-1,		0.00,
13042021_19:43:50,	2.091,	2.167,		38,		1.925,		-19605,		-3.52,	0.00,		1000000.00,	-1,		1000000.00,		-1,		0.00,
13042021_19:44:01,	2.091,	2.167,		37,		1.925,		-19606,		-3.52,	0.00,		1000000.00,	-1,		1000000.00,		-1,		0.00,
13042021_19:44:11,	2.091,	2.167,		36,		1.925,		-19607,		-3.52,	0.00,		1000000.00,	-1,		1000000.00,		-1,		0.00,
13042021_19:44:22,	2.095,	2.167,		35,		1.925,		-19608,		-3.34,	-0.09,		1000000.00,	-1,		1000000.00,		-1,		0.00,
13042021_19:44:32,	2.095,	2.167,		34,		1.925,		-19609,		-3.34,	-0.18,		1000000.00,	-1,		1000000.00,		-1,		0.00,
13042021_19:44:43,	2.095,	2.167,		33,		1.925,		-19610,		-3.34,	-0.18,		1000000.00,	-1,		1000000.00,		-1,		0.00,
13042021_19:44:53,	2.086,	2.167,		32,		1.925,		-19611,		-3.75,	0.12,		1000000.00,	-1,		1000000.00,		-1,		0.00,
13042021_19:45:03,	2.086,	2.167,		31,		1.925,		-19612,		-3.75,	0.42,		1000000.00,	-1,		1000000.00,		-1,		0.00,
13042021_19:45:14,	2.091,	2.167,		30,		1.925,		-19613,		-3.49,	0.29,		1000000.00,	-1,		1000000.00,		-1,		0.00,
13042021_19:45:24,	2.091,	2.167,		29,		1.925,		-19614,		-3.49,	-0.05,		1000000.00,	-1,		1000000.00,		-1,		0.00,
13042021_19:45:35,	2.091,	2.167,		28,		1.925,		-19615,		-3.49,	-0.26,		1000000.00,	-1,		1000000.00,		-1,		0.00,
13042021_19:45:46,	2.096,	2.167,		27,		1.925,		-19616,		-3.28,	-0.24,		1000000.00,	-1,		1000000.00,		-1,		0.00,
13042021_19:45:57,	2.092,	2.167,		26,		1.925,		-19617,		-3.46,	-0.13,		1000000.00,	-1,		1000000.00,		-1,		0.00,
13042021_19:46:07,	2.092,	2.167,		25,		1.925,		-19618,		-3.46,	-0.03,		1000000.00,	-1,		1000000.00,		-1,		0.00,
13042021_19:46:18,	2.092,	2.167,		24,		1.925,		-19619,		-3.46,	0.08,		1000000.00,	-1,		1000000.00,		-1,		0.00,
13042021_19:46:28,	2.094,	2.167,		23,		1.925,		-19620,		-3.37,	0.05,		1000000.00,	-1,		1000000.00,		-1,		0.00,
13042021_19:46:38,	2.093,	2.167,		22,		1.925,		-19621,		-3.41,	-0.07,		1000000.00,	-1,		1000000.00,		-1,		0.00,
13042021_19:46:49,	2.093,	2.167,		21,		1.925,		-19622,		-3.41,	-0.05,		1000000.00,	-1,		1000000.00,		-1,		0.00,
13042021_19:46:59,	2.093,	2.167,		20,		1.925,		-19623,		-3.41,	-0.00,		1000000.00,	-1,		1000000.00,		-1,		0.00,
13042021_19:47:10,	2.089,	2.167,		19,		1.925,		-19624,		-3.60,	0.12,		1000000.00,	-1,		1000000.00,		-1,		0.00,
13042021_19:47:20,	2.099,	2.167,		18,		1.925,		-19625,		-3.12,	-0.05,		1000000.00,	-1,		1000000.00,		-1,		0.00,
13042021_19:47:30,	2.094,	2.167,		17,		1.925,		-19626,		-3.39,	-0.16,		1000000.00,	-1,		1000000.00,		-1,		0.00,
13042021_19:47:41,	2.094,	2.167,		16,		1.925,		-19627,		-3.39,	-0.12,		1000000.00,	-1,		1000000.00,		-1,		0.00,
13042021_19:47:53,	2.099,	2.167,		15,		1.925,		-19628,		-3.15,	-0.10,		1000000.00,	-1,		1000000.00,		-1,		0.00,
13042021_19:48:04,	2.086,	2.167,		14,		1.925,		-19629,		-3.77,	0.21,		1000000.00,	-1,		1000000.00,		-1,		0.00,
13042021_19:48:14,	2.086,	2.167,		13,		1.925,		-19630,		-3.77,	0.40,		1000000.00,	-1,		1000000.00,		-1,		0.00,
13042021_19:48:24,	2.086,	2.167,		12,		1.925,		-19631,		-3.77,	0.52,		1000000.00,	-1,		1000000.00,		-1,		0.00,
13042021_19:48:35,	2.096,	2.167,		11,		1.925,		-19632,		-3.30,	0.08,		1000000.00,	-1,		1000000.00,		-1,		0.00,
13042021_19:48:45,	2.096,	2.167,		10,		1.925,		-19633,		-3.30,	-0.49,		1000000.00,	-1,		1000000.00,		-1,		0.00,
13042021_19:48:56,	2.096,	2.167,		9,		1.925,		-19634,		-3.30,	-0.49,		1000000.00,	-1,		1000000.00,		-1,		0.00,
13042021_19:49:06,	2.096,	2.167,		8,		1.925,		-19635,		-3.30,	-0.24,		1000000.00,	-1,		1000000.00,		-1,		0.00,
13042021_19:49:16,	2.096,	2.167,		7,		1.925,		-19636,		-3.30,	0.00,		1000000.00,	-1,		1000000.00,		-1,		0.00,
13042021_19:49:27,	2.096,	2.167,		6,		1.925,		-19637,		-3.30,	0.00,		1000000.00,	-1,		1000000.00,		-1,		0.00,
13042021_19:49:37,	2.096,	2.167,		5,		1.925,		-19638,		-3.30,	0.00,		1000000.00,	-1,		1000000.00,		-1,		0.00,
13042021_19:49:49,	2.096,	2.167,		4,		1.925,		-19639,		-3.30,	0.00,		1000000.00,	-1,		1000000.00,		-1,		0.00,
13042021_19:50:00,	2.096,	2.167,		3,		1.925,		-19640,		-3.30,	0.00,		1000000.00,	-1,		1000000.00,		-1,		0.00,
13042021_19:50:10,	2.096,	2.167,		2,		1.925,		-19641,		-3.30,	0.00,		1000000.00,	-1,		1000000.00,		-1,		0.00,
13042021_19:50:20,	2.096,	2.167,		1,		1.925,		-19642,		-3.30,	0.00,		1000000.00,	-1,		1000000.00,		-1,		0.00,
13042021_19:50:31,	2.096,	2.167,		0,		1.925,		-19643,		-3.30,	0.00,		1000000.00,	-1,		1000000.00,		-1,		0.00,
13042021_19:50:41,	2.096,	2.167,		0,		1.925,		-19644,		-3.29,	0.00,		1000000.00,	-1,		1000000.00,		-1,		0.00,
13042021_19:50:52,	2.096,	2.167,		0,		1.925,		-19645,		-3.28,	0.00,		1000000.00,	-1,		1000000.00,		-1,		0.00,
13042021_19:51:02,	2.096,	2.167,		0,		1.925,		-19646,		-3.27,	0.00,		1000000.00,	-1,		1000000.00,		-1,		0.00,
13042021_19:51:12,	2.096,	2.166,		0,		1.925,		-19647,		-3.26,	0.00,		1000000.00,	-1,		1000000.00,		-1,		0.00,
13042021_19:51:23,	2.096,	2.166,		0,		1.925,		-19648,		-3.25,	0.00,		1000000.00,	-1,		1000000.00,		-1,		0.00,
13042021_19:51:34,	2.096,	2.166,		0,		1.925,		-19649,		-3.24,	0.00,		1000000.00,	-1,		1000000.00,		-1,		0.00,
13042021_19:51:45,	2.096,	2.165,		0,		1.925,		-19650,		-3.20,	0.00,		1000000.00,	-1,		1000000.00,		-1,		0.00,
13042021_19:51:55,	2.096,	2.164,		0,		1.925,		-19651,		-3.16,	0.00,		1000000.00,	-1,		1000000.00,		-1,		0.00,
13042021_19:52:06,	2.095,	2.163,		0,		1.925,		-19652,		-3.16,	0.02,		1000000.00,	-1,		1000000.00,		-1,		0.00,
13042021_19:52:16,	2.095,	2.162,		37,		1.925,		-19653,		-3.12,	0.04,		1000000.00,	-1,		1000000.00,		-1,		0.00,
13042021_19:52:26,	2.095,	2.162,		36,		1.925,		-19654,		-3.08,	0.04,		1000000.00,	-1,		1000000.00,		-1,		0.00,
13042021_19:52:37,	2.095,	2.161,		35,		1.925,		-19655,		-3.04,	0.02,		1000000.00,	-1,		1000000.00,		-1,		0.00,
13042021_19:52:47,	2.097,	2.161,		34,		1.925,		-19656,		-2.96,	-0.04,		1000000.00,	-1,		1000000.00,		-1,		0.00,
13042021_19:52:58,	2.097,	2.161,		33,		1.925,		-19657,		-2.96,	-0.08,		1000000.00,	-1,		1000000.00,		-1,		0.00,
13042021_19:53:08,	2.097,	2.161,		32,		1.925,		-19658,		-2.96,	-0.08,		1000000.00,	-1,		1000000.00,		-1,		0.00,
13042021_19:53:19,	2.088,	2.161,		31,		1.925,		-19659,		-3.37,	0.17,		1000000.00,	-1,		1000000.00,		-1,		0.00,
13042021_19:53:30,	2.088,	2.161,		30,		1.925,		-19660,		-3.37,	0.42,		1000000.00,	-1,		1000000.00,		-1,		0.00,
13042021_19:53:41,	2.088,	2.161,		29,		1.925,		-19661,		-3.37,	0.42,		1000000.00,	-1,		1000000.00,		-1,		0.00,
13042021_19:53:52,	2.088,	2.161,		28,		1.925,		-19662,		-3.37,	0.21,		1000000.00,	-1,		1000000.00,		-1,		0.00,
13042021_19:54:02,	2.088,	2.161,		27,		1.925,		-19663,		-3.37,	0.00,		1000000.00,	-1,		1000000.00,		-1,		0.00,
13042021_19:54:13,	2.088,	2.161,		26,		1.925,		-19664,		-3.37,	0.00,		1000000.00,	-1,		1000000.00,		-1,		0.00,
13042021_19:54:23,	2.085,	2.161,		25,		1.925,		-19665,		-3.50,	0.07,		1000000.00,	-1,		1000000.00,		-1,		0.00,
13042021_19:54:34,	2.085,	2.161,		24,		1.925,		-19666,		-3.50,	0.13,		1000000.00,	-1,		1000000.00,		-1,		0.00,
13042021_19:54:44,	2.092,	2.161,		23,		1.925,		-19667,		-3.19,	-0.03,		1000000.00,	-1,		1000000.00,		-1,		0.00,
13042021_19:54:55,	2.091,	2.161,		22,		1.925,		-19668,		-3.20,	-0.25,		1000000.00,	-1,		1000000.00,		-1,		0.00,
13042021_19:55:05,	2.091,	2.161,		21,		1.925,		-19669,		-3.20,	-0.31,		1000000.00,	-1,		1000000.00,		-1,		0.00,
13042021_19:55:15,	2.086,	2.161,		20,		1.925,		-19670,		-3.46,	-0.02,		1000000.00,	-1,		1000000.00,		-1,		0.00,
13042021_19:55:26,	2.086,	2.161,		19,		1.925,		-19671,		-3.46,	0.27,		1000000.00,	-1,		1000000.00,		-1,		0.00,
13042021_19:55:37,	2.086,	2.161,		18,		1.925,		-19672,		-3.46,	0.26,		1000000.00,	-1,		1000000.00,		-1,		0.00,
13042021_19:55:49,	2.086,	2.161,		17,		1.925,		-19673,		-3.46,	0.13,		1000000.00,	-1,		1000000.00,		-1,		0.00,
13042021_19:55:59,	2.086,	2.161,		16,		1.925,		-19674,		-3.46,	0.00,		1000000.00,	-1,		1000000.00,		-1,		0.00,
13042021_19:56:10,	2.086,	2.161,		15,		1.925,		-19675,		-3.46,	0.00,		1000000.00,	-1,		1000000.00,		-1,		0.00,
13042021_19:56:20,	2.086,	2.161,		14,		1.925,		-19676,		-3.46,	0.00,		1000000.00,	-1,		1000000.00,		-1,		0.00,
13042021_19:56:30,	2.081,	2.161,		13,		1.925,		-19677,		-3.68,	0.12,		1000000.00,	-1,		1000000.00,		-1,		0.00,
13042021_19:56:41,	2.081,	2.161,		12,		1.925,		-19678,		-3.68,	0.23,		1000000.00,	-1,		1000000.00,		-1,		0.00,
13042021_19:56:51,	2.081,	2.161,		11,		1.925,		-19679,		-3.68,	0.23,		1000000.00,	-1,		1000000.00,		-1,		0.00,
13042021_19:57:02,	2.081,	2.161,		10,		1.925,		-19680,		-3.68,	0.12,		1000000.00,	-1,		1000000.00,		-1,		0.00,
13042021_19:57:12,	2.081,	2.161,		9,		1.925,		-19681,		-3.68,	0.00,		1000000.00,	-1,		1000000.00,		-1,		0.00,
13042021_19:57:23,	2.081,	2.161,		8,		1.925,		-19682,		-3.68,	0.00,		1000000.00,	-1,		1000000.00,		-1,		0.00,
13042021_19:57:34,	2.081,	2.161,		7,		1.925,		-19683,		-3.68,	0.00,		1000000.00,	-1,		1000000.00,		-1,		0.00,
13042021_19:57:45,	2.081,	2.161,		6,		1.925,		-19684,		-3.68,	0.00,		1000000.00,	-1,		1000000.00,		-1,		0.00,
13042021_19:57:56,	2.085,	2.161,		5,		1.925,		-19685,		-3.49,	-0.10,		1000000.00,	-1,		1000000.00,		-1,		0.00,
13042021_19:58:06,	2.085,	2.161,		4,		1.925,		-19686,		-3.49,	-0.21,		1000000.00,	-1,		1000000.00,		-1,		0.00,
13042021_19:58:17,	2.085,	2.161,		3,		1.925,		-19687,		-3.49,	-0.21,		1000000.00,	-1,		1000000.00,		-1,		0.00,
13042021_19:58:27,	2.085,	2.161,		2,		1.925,		-19688,		-3.49,	-0.10,		1000000.00,	-1,		1000000.00,		-1,		0.00,
13042021_19:58:38,	2.085,	2.161,		1,		1.925,		-19689,		-3.49,	0.00,		1000000.00,	-1,		1000000.00,		-1,		0.00,
13042021_19:58:48,	2.085,	2.161,		0,		1.925,		-19690,		-3.49,	0.00,		1000000.00,	-1,		1000000.00,		-1,		0.00,
13042021_19:58:58,	2.085,	2.160,		47,		1.925,		-19691,		-3.47,	-0.00,		1000000.00,	-1,		1000000.00,		-1,		0.00,
13042021_19:59:09,	2.085,	2.160,		46,		1.925,		-19692,		-3.47,	-0.00,		1000000.00,	-1,		1000000.00,		-1,		0.00,
13042021_19:59:19,	2.085,	2.160,		45,		1.925,		-19693,		-3.46,	-0.00,		1000000.00,	-1,		1000000.00,		-1,		0.00,
13042021_19:59:30,	2.085,	2.160,		44,		1.925,		-19694,		-3.45,	-0.00,		1000000.00,	-1,		1000000.00,		-1,		0.00,
13042021_19:59:41,	2.096,	2.160,		43,		1.925,		-19695,		-2.94,	-0.26,		1000000.00,	-1,		1000000.00,		-1,		0.00,
13042021_19:59:52,	2.096,	2.160,		42,		1.925,		-19696,		-2.93,	-0.52,		1000000.00,	-1,		1000000.00,		-1,		0.00,
13042021_20:00:03,	2.096,	2.160,		41,		1.925,		-19697,		-2.93,	-0.52,		1000000.00,	-1,		1000000.00,		-1,		0.00,
13042021_20:00:13,	2.096,	2.160,		40,		1.925,		-19698,		-2.93,	-0.26,		1000000.00,	-1,		1000000.00,		-1,		0.00,
13042021_20:00:23,	2.096,	2.160,		39,		1.925,		-19699,		-2.93,	0.00,		1000000.00,	-1,		1000000.00,		-1,		0.00,
13042021_20:00:34,	2.096,	2.160,		38,		1.925,		-19700,		-2.93,	0.00,		1000000.00,	-1,		1000000.00,		-1,		0.00,
13042021_20:00:44,	2.096,	2.160,		37,		1.925,		-19701,		-2.93,	0.00,		1000000.00,	-1,		1000000.00,		-1,		0.00,
13042021_20:00:54,	2.096,	2.160,		36,		1.925,		-19702,		-2.93,	0.00,		1000000.00,	-1,		1000000.00,		-1,		0.00,
13042021_20:01:05,	2.096,	2.160,		35,		1.925,		-19703,		-2.93,	0.00,		1000000.00,	-1,		1000000.00,		-1,		0.00,
13042021_20:01:15,	2.096,	2.160,		34,		1.925,		-19704,		-2.93,	0.00,		1000000.00,	-1,		1000000.00,		-1,		0.00,
13042021_20:01:26,	2.092,	2.160,		33,		1.925,		-19705,		-3.14,	0.11,		1000000.00,	-1,		1000000.00,		-1,		0.00,
13042021_20:01:37,	2.103,	2.160,		32,		1.925,		-19706,		-2.63,	-0.05,		1000000.00,	-1,		1000000.00,		-1,		0.00,
13042021_20:01:49,	2.103,	2.160,		31,		1.925,		-19707,		-2.63,	-0.31,		1000000.00,	-1,		1000000.00,		-1,		0.00,
13042021_20:01:59,	2.103,	2.160,		30,		1.925,		-19708,		-2.63,	-0.42,		1000000.00,	-1,		1000000.00,		-1,		0.00,
13042021_20:02:10,	2.103,	2.160,		29,		1.925,		-19709,		-2.63,	-0.26,		1000000.00,	-1,		1000000.00,		-1,		0.00,
13042021_20:02:20,	2.103,	2.160,		28,		1.925,		-19710,		-2.63,	0.00,		1000000.00,	-1,		1000000.00,		-1,		0.00,
13042021_20:02:30,	2.106,	2.160,		27,		1.925,		-19711,		-2.51,	-0.06,		1000000.00,	-1,		1000000.00,		-1,		0.00,
13042021_20:02:41,	2.106,	2.160,		26,		1.925,		-19712,		-2.51,	-0.13,		1000000.00,	-1,		1000000.00,		-1,		0.00,
13042021_20:02:51,	2.106,	2.160,		25,		1.925,		-19713,		-2.51,	-0.13,		1000000.00,	-1,		1000000.00,		-1,		0.00,
13042021_20:03:01,	2.092,	2.160,		24,		1.925,		-19714,		-3.12,	0.25,		1000000.00,	-1,		1000000.00,		-1,		0.00,
13042021_20:03:13,	2.105,	2.160,		23,		1.925,		-19715,		-2.53,	0.33,		1000000.00,	-1,		1000000.00,		-1,		0.00,
13042021_20:03:23,	2.093,	2.160,		22,		1.925,		-19716,		-3.09,	0.32,		1000000.00,	-1,		1000000.00,		-1,		0.00,
13042021_20:03:34,	2.093,	2.160,		21,		1.925,		-19717,		-3.09,	0.29,		1000000.00,	-1,		1000000.00,		-1,		0.00,
13042021_20:03:45,	2.093,	2.160,		20,		1.925,		-19718,		-3.09,	0.28,		1000000.00,	-1,		1000000.00,		-1,		0.00,
13042021_20:03:56,	2.092,	2.160,		19,		1.925,		-19719,		-3.12,	0.30,		1000000.00,	-1,		1000000.00,		-1,		0.00,
13042021_20:04:07,	2.099,	2.160,		18,		1.925,		-19720,		-2.83,	-0.12,		1000000.00,	-1,		1000000.00,		-1,		0.00,
13042021_20:04:17,	2.099,	2.160,		17,		1.925,		-19721,		-2.83,	-0.27,		1000000.00,	-1,		1000000.00,		-1,		0.00,
13042021_20:04:28,	2.099,	2.160,		16,		1.925,		-19722,		-2.83,	-0.29,		1000000.00,	-1,		1000000.00,		-1,		0.00,
13042021_20:04:38,	2.099,	2.160,		15,		1.925,		-19723,		-2.83,	-0.15,		1000000.00,	-1,		1000000.00,		-1,		0.00,
13042021_20:04:48,	2.093,	2.160,		14,		1.925,		-19724,		-3.07,	0.13,		1000000.00,	-1,		1000000.00,		-1,		0.00,
13042021_20:04:59,	2.093,	2.160,		13,		1.925,		-19725,		-3.07,	0.25,		1000000.00,	-1,		1000000.00,		-1,		0.00,
13042021_20:05:09,	2.095,	2.160,		12,		1.925,		-19726,		-3.01,	0.22,		1000000.00,	-1,		1000000.00,		-1,		0.00,
13042021_20:05:19,	2.102,	2.160,		11,		1.925,		-19727,		-2.68,	-0.11,		1000000.00,	-1,		1000000.00,		-1,		0.00,
13042021_20:05:30,	2.102,	2.160,		10,		1.925,		-19728,		-2.68,	-0.41,		1000000.00,	-1,		1000000.00,		-1,		0.00,
13042021_20:05:41,	2.103,	2.160,		9,		1.925,		-19729,		-2.60,	-0.41,		1000000.00,	-1,		1000000.00,		-1,		0.00,
13042021_20:05:53,	2.103,	2.160,		8,		1.925,		-19730,		-2.60,	-0.25,		1000000.00,	-1,		1000000.00,		-1,		0.00,
13042021_20:06:04,	2.103,	2.160,		7,		1.925,		-19731,		-2.60,	-0.08,		1000000.00,	-1,		1000000.00,		-1,		0.00,
13042021_20:06:15,	2.098,	2.160,		6,		1.925,		-19732,		-2.87,	0.10,		1000000.00,	-1,		1000000.00,		-1,		0.00,
13042021_20:06:25,	2.098,	2.160,		5,		1.925,		-19733,		-2.87,	0.27,		1000000.00,	-1,		1000000.00,		-1,		0.00,
13042021_20:06:35,	2.098,	2.160,		4,		1.925,		-19734,		-2.85,	0.26,		1000000.00,	-1,		1000000.00,		-1,		0.00,
13042021_20:06:46,	2.098,	2.160,		3,		1.925,		-19735,		-2.85,	0.12,		1000000.00,	-1,		1000000.00,		-1,		0.00,
13042021_20:06:56,	2.100,	2.160,		2,		1.925,		-19736,		-2.75,	-0.07,		1000000.00,	-1,		1000000.00,		-1,		0.00,
13042021_20:07:06,	2.100,	2.160,		1,		1.925,		-19737,		-2.75,	-0.11,		1000000.00,	-1,		1000000.00,		-1,		0.00,
13042021_20:07:17,	2.100,	2.160,		0,		1.925,		-19738,		-2.75,	-0.10,		1000000.00,	-1,		1000000.00,		-1,		0.00,
13042021_20:07:27,	2.100,	2.160,		0,		1.925,		-19739,		-2.75,	-0.05,		1000000.00,	-1,		1000000.00,		-1,		0.00,
13042021_20:07:38,	2.100,	2.160,		0,		1.925,		-19740,		-2.75,	0.00,		1000000.00,	-1,		1000000.00,		-1,		0.00,
13042021_20:07:49,	2.100,	2.160,		0,		1.925,		-19741,		-2.75,	0.00,		1000000.00,	-1,		1000000.00,		-1,		0.00,
13042021_20:08:01,	2.100,	2.160,		0,		1.925,		-19742,		-2.78,	0.01,		1000000.00,	-1,		1000000.00,		-1,		0.00,
13042021_20:08:11,	2.100,	2.160,		0,		1.925,		-19743,		-2.78,	0.03,		1000000.00,	-1,		1000000.00,		-1,		0.00,
13042021_20:08:22,	2.100,	2.159,		0,		1.925,		-19744,		-2.73,	0.03,		1000000.00,	-1,		1000000.00,		-1,		0.00,
13042021_20:08:32,	2.100,	2.158,		0,		1.925,		-19745,		-2.69,	0.01,		1000000.00,	-1,		1000000.00,		-1,		0.00,
13042021_20:08:42,	2.092,	2.156,		0,		1.925,		-19746,		-2.96,	0.17,		1000000.00,	-1,		1000000.00,		-1,		0.00,
13042021_20:08:53,	2.092,	2.155,		0,		1.925,		-19747,		-2.89,	0.35,		1000000.00,	-1,		1000000.00,		-1,		0.00,
13042021_20:09:03,	2.092,	2.152,		0,		1.925,		-19748,		-2.76,	0.35,		1000000.00,	-1,		1000000.00,		-1,		0.00,
13042021_20:09:14,	2.092,	2.148,		4,		1.925,		-19749,		-2.59,	0.17,		1000000.00,	-1,		1000000.00,		-1,		0.00,
13042021_20:09:24,	2.092,	2.145,		3,		1.925,		-19750,		-2.47,	0.00,		1000000.00,	-1,		1000000.00,		-1,		0.00,
13042021_20:09:34,	2.092,	2.143,		2,		1.925,		-19751,		-2.35,	0.00,		1000000.00,	-1,		1000000.00,		-1,		0.00,
13042021_20:09:45,	2.092,	2.141,		1,		1.925,		-19752,		-2.26,	0.00,		1000000.00,	-1,		1000000.00,		-1,		0.00,
13042021_20:09:57,	2.092,	2.138,		0,		1.925,		-19753,		-2.16,	0.00,		1000000.00,	-1,		1000000.00,		-1,		0.00,
13042021_20:10:08,	2.087,	2.137,		289,		1.925,		-19754,		-2.37,	0.14,		1000000.00,	-1,		1000000.00,		-1,		0.00,
13042021_20:10:18,	2.087,	2.137,		288,		1.925,		-19755,		-2.34,	0.28,		1000000.00,	-1,		1000000.00,		-1,		0.00,
13042021_20:10:28,	2.087,	2.136,		287,		1.925,		-19756,		-2.31,	0.28,		1000000.00,	-1,		1000000.00,		-1,		0.00,
13042021_20:10:39,	2.087,	2.135,		286,		1.925,		-19757,		-2.28,	0.14,		1000000.00,	-1,		1000000.00,		-1,		0.00,
13042021_20:10:49,	2.087,	2.134,		285,		1.925,		-19758,		-2.24,	0.00,		1000000.00,	-1,		1000000.00,		-1,		0.00,
13042021_20:10:59,	2.087,	2.134,		284,		1.925,		-19759,		-2.21,	0.00,		1000000.00,	-1,		1000000.00,		-1,		0.00,
13042021_20:11:10,	2.098,	2.134,		283,		1.925,		-19760,		-1.70,	-0.26,		1000000.00,	-1,		1000000.00,		-1,		0.00,
13042021_20:11:20,	2.098,	2.134,		282,		1.925,		-19761,		-1.70,	-0.53,		1000000.00,	-1,		1000000.00,		-1,		0.00,
13042021_20:11:31,	2.096,	2.134,		281,		1.925,		-19762,		-1.75,	-0.50,		1000000.00,	-1,		1000000.00,		-1,		0.00,
13042021_20:11:41,	2.096,	2.134,		280,		1.925,		-19763,		-1.75,	-0.21,		1000000.00,	-1,		1000000.00,		-1,		0.00,
13042021_20:11:53,	2.091,	2.134,		279,		1.925,		-19764,		-2.02,	0.19,		1000000.00,	-1,		1000000.00,		-1,		0.00,
13042021_20:12:04,	2.091,	2.134,		278,		1.925,		-19765,		-2.02,	0.30,		1000000.00,	-1,		1000000.00,		-1,		0.00,
13042021_20:12:14,	2.091,	2.134,		277,		1.925,		-19766,		-2.02,	0.27,		1000000.00,	-1,		1000000.00,		-1,		0.00,
13042021_20:12:25,	2.099,	2.134,		276,		1.925,		-19767,		-1.64,	-0.06,		1000000.00,	-1,		1000000.00,		-1,		0.00,
13042021_20:12:35,	2.103,	2.134,		275,		1.925,		-19768,		-1.44,	-0.49,		1000000.00,	-1,		1000000.00,		-1,		0.00,
13042021_20:12:46,	2.103,	2.134,		274,		1.925,		-19769,		-1.44,	-0.59,		1000000.00,	-1,		1000000.00,		-1,		0.00,
13042021_20:12:56,	2.103,	2.134,		273,		1.925,		-19770,		-1.44,	-0.40,		1000000.00,	-1,		1000000.00,		-1,		0.00,
13042021_20:13:07,	2.099,	2.134,		272,		1.925,		-19771,		-1.62,	-0.01,		1000000.00,	-1,		1000000.00,		-1,		0.00,
13042021_20:13:17,	2.099,	2.134,		271,		1.925,		-19772,		-1.62,	0.19,		1000000.00,	-1,		1000000.00,		-1,		0.00,
13042021_20:13:27,	2.099,	2.134,		270,		1.925,		-19773,		-1.62,	0.19,		1000000.00,	-1,		1000000.00,		-1,		0.00,
13042021_20:13:38,	2.099,	2.134,		269,		1.925,		-19774,		-1.62,	0.09,		1000000.00,	-1,		1000000.00,		-1,		0.00,
13042021_20:13:48,	2.099,	2.134,		268,		1.925,		-19775,		-1.62,	0.00,		1000000.00,	-1,		1000000.00,		-1,		0.00,
13042021_20:14:00,	2.100,	2.134,		267,		1.925,		-19776,		-1.59,	-0.02,		1000000.00,	-1,		1000000.00,		-1,		0.00,
13042021_20:14:10,	2.100,	2.134,		266,		1.925,		-19777,		-1.59,	-0.03,		1000000.00,	-1,		1000000.00,		-1,		0.00,
13042021_20:14:21,	2.100,	2.134,		265,		1.925,		-19778,		-1.59,	-0.03,		1000000.00,	-1,		1000000.00,		-1,		0.00,
13042021_20:14:31,	2.100,	2.134,		264,		1.925,		-19779,		-1.59,	-0.02,		1000000.00,	-1,		1000000.00,		-1,		0.00,
13042021_20:14:41,	2.110,	2.134,		263,		1.925,		-19780,		-1.11,	-0.24,		1000000.00,	-1,		1000000.00,		-1,		0.00,
13042021_20:14:52,	2.110,	2.134,		262,		1.925,		-19781,		-1.11,	-0.49,		1000000.00,	-1,		1000000.00,		-1,		0.00,
13042021_20:15:02,	2.110,	2.134,		261,		1.925,		-19782,		-1.11,	-0.49,		1000000.00,	-1,		1000000.00,		-1,		0.00,
13042021_20:15:13,	2.099,	2.134,		260,		1.925,		-19783,		-1.63,	0.02,		1000000.00,	-1,		1000000.00,		-1,		0.00,
13042021_20:15:23,	2.099,	2.134,		259,		1.925,		-19784,		-1.63,	0.52,		1000000.00,	-1,		1000000.00,		-1,		0.00,
13042021_20:15:33,	2.099,	2.134,		258,		1.925,		-19785,		-1.63,	0.52,		1000000.00,	-1,		1000000.00,		-1,		0.00,
13042021_20:15:44,	2.099,	2.134,		257,		1.925,		-19786,		-1.63,	0.26,		1000000.00,	-1,		1000000.00,		-1,		0.00,
13042021_20:15:56,	2.099,	2.134,		256,		1.925,		-19787,		-1.63,	0.00,		1000000.00,	-1,		1000000.00,		-1,		0.00,
13042021_20:16:08,	2.106,	2.134,		255,		1.925,		-19788,		-1.28,	-0.18,		1000000.00,	-1,		1000000.00,		-1,		0.00,
13042021_20:16:18,	2.106,	2.134,		254,		1.925,		-19789,		-1.28,	-0.35,		1000000.00,	-1,		1000000.00,		-1,		0.00,
13042021_20:16:28,	2.100,	2.134,		253,		1.925,		-19790,		-1.59,	-0.19,		1000000.00,	-1,		1000000.00,		-1,		0.00,
13042021_20:16:39,	2.106,	2.134,		252,		1.925,		-19791,		-1.30,	-0.01,		1000000.00,	-1,		1000000.00,		-1,		0.00,
13042021_20:16:49,	2.106,	2.134,		251,		1.925,		-19792,		-1.30,	0.02,		1000000.00,	-1,		1000000.00,		-1,		0.00,
13042021_20:16:59,	2.106,	2.134,		250,		1.925,		-19793,		-1.30,	-0.14,		1000000.00,	-1,		1000000.00,		-1,		0.00,
13042021_20:17:10,	2.106,	2.134,		249,		1.925,		-19794,		-1.30,	-0.15,		1000000.00,	-1,		1000000.00,		-1,		0.00,
13042021_20:17:20,	2.105,	2.134,		248,		1.925,		-19795,		-1.34,	0.02,		1000000.00,	-1,		1000000.00,		-1,		0.00,
13042021_20:17:31,	2.105,	2.134,		247,		1.925,		-19796,		-1.34,	0.04,		1000000.00,	-1,		1000000.00,		-1,		0.00,
13042021_20:17:41,	2.105,	2.134,		246,		1.925,		-19797,		-1.34,	0.04,		1000000.00,	-1,		1000000.00,		-1,		0.00,
13042021_20:17:52,	2.105,	2.134,		245,		1.925,		-19798,		-1.34,	0.02,		1000000.00,	-1,		1000000.00,		-1,		0.00,
13042021_20:18:04,	2.105,	2.134,		244,		1.925,		-19799,		-1.34,	0.00,		1000000.00,	-1,		1000000.00,		-1,		0.00,
13042021_20:18:14,	2.105,	2.134,		243,		1.925,		-19800,		-1.34,	0.00,		1000000.00,	-1,		1000000.00,		-1,		0.00,
13042021_20:18:25,	2.104,	2.134,		242,		1.925,		-19801,		-1.39,	0.02,		1000000.00,	-1,		1000000.00,		-1,		0.00,
13042021_20:18:35,	2.104,	2.134,		241,		1.925,		-19802,		-1.39,	0.05,		1000000.00,	-1,		1000000.00,		-1,		0.00,
13042021_20:18:45,	2.104,	2.134,		240,		1.925,		-19803,		-1.39,	0.05,		1000000.00,	-1,		1000000.00,		-1,		0.00,
13042021_20:18:56,	2.098,	2.134,		239,		1.925,		-19804,		-1.67,	0.17,		1000000.00,	-1,		1000000.00,		-1,		0.00,
13042021_20:19:06,	2.098,	2.134,		238,		1.925,		-19805,		-1.67,	0.29,		1000000.00,	-1,		1000000.00,		-1,		0.00,
13042021_20:19:17,	2.098,	2.134,		237,		1.925,		-19806,		-1.67,	0.29,		1000000.00,	-1,		1000000.00,		-1,		0.00,
13042021_20:19:27,	2.098,	2.134,		236,		1.925,		-19807,		-1.67,	0.14,		1000000.00,	-1,		1000000.00,		-1,		0.00,
13042021_20:19:37,	2.099,	2.134,		235,		1.925,		-19808,		-1.64,	-0.01,		1000000.00,	-1,		1000000.00,		-1,		0.00,
13042021_20:19:48,	2.099,	2.134,		234,		1.925,		-19809,		-1.64,	-0.03,		1000000.00,	-1,		1000000.00,		-1,		0.00,
13042021_20:20:00,	2.099,	2.134,		233,		1.925,		-19810,		-1.64,	-0.03,		1000000.00,	-1,		1000000.00,		-1,		0.00,
13042021_20:20:10,	2.092,	2.134,		232,		1.925,		-19811,		-1.93,	0.13,		1000000.00,	-1,		1000000.00,		-1,		0.00,
13042021_20:20:21,	2.092,	2.134,		231,		1.925,		-19812,		-1.93,	0.30,		1000000.00,	-1,		1000000.00,		-1,		0.00,